Time,TemperatureF,DewpointF,PressureIn,WindDirection,WindDirectionDegrees,WindSpeedMPH,WindSpeedGustMPH,Humidity,HourlyPrecipIn,Conditions,Clouds,dailyrainin,SolarRadiationWatts/m^2,SoftwareType,DateUTC
2013-07-06 00:02:00,66.7,60.8,30.08,SSE,149,0.0,1.0,65,0.01,,,0.16,0.0,meteohub,2013-07-06 04:02:00,
2013-07-06 00:07:00,66.6,60.8,30.07,ESE,103,0.0,1.0,65,0.01,,,0.00,0.0,meteohub,2013-07-06 04:07:00,
2013-07-06 00:12:00,66.6,60.8,30.07,East,101,0.0,2.0,65,0.01,,,0.00,0.0,meteohub,2013-07-06 04:12:00,
2013-07-06 00:17:00,66.6,61.2,30.07,East,86,0.0,2.0,65,0.02,,,0.01,0.0,meteohub,2013-07-06 04:17:00,
2013-07-06 00:22:00,66.6,61.2,30.07,East,86,0.0,2.0,65,0.03,,,0.02,0.0,meteohub,2013-07-06 04:22:00,
2013-07-06 00:27:00,66.6,60.3,30.07,East,87,0.0,2.0,63,0.03,,,0.02,0.0,meteohub,2013-07-06 04:27:00,
2013-07-06 00:32:00,66.6,60.3,30.07,East,94,0.0,1.0,64,0.02,,,0.02,0.0,meteohub,2013-07-06 04:32:00,
2013-07-06 00:37:00,66.4,60.8,30.07,East,96,2.0,2.0,65,0.02,,,0.02,0.0,meteohub,2013-07-06 04:37:00,
2013-07-06 00:42:00,66.4,60.8,30.06,East,96,0.0,3.0,65,0.02,,,0.02,0.0,meteohub,2013-07-06 04:42:00,
2013-07-06 00:47:00,66.4,60.8,30.07,ESE,113,1.0,3.0,65,0.02,,,0.02,0.0,meteohub,2013-07-06 04:47:00,
2013-07-06 00:52:00,66.4,60.6,30.06,ESE,113,0.0,3.0,64,0.02,,,0.02,0.0,meteohub,2013-07-06 04:52:00,
2013-07-06 00:57:00,66.6,60.3,30.06,ESE,109,0.0,2.0,64,0.02,,,0.02,0.0,meteohub,2013-07-06 04:57:00,
2013-07-06 01:02:00,66.4,60.8,30.06,ENE,63,1.0,3.0,65,0.03,,,0.03,0.0,meteohub,2013-07-06 05:02:00,
2013-07-06 01:07:00,66.4,60.8,30.06,East,96,0.0,3.0,65,0.04,,,0.04,0.0,meteohub,2013-07-06 05:07:00,
2013-07-06 01:12:00,66.4,60.8,30.06,ESE,103,0.0,3.0,65,0.04,,,0.04,0.0,meteohub,2013-07-06 05:12:00,
2013-07-06 01:17:00,66.4,61.2,30.06,East,94,0.0,3.0,65,0.05,,,0.06,0.0,meteohub,2013-07-06 05:17:00,
2013-07-06 01:22:00,66.4,60.6,30.06,ESE,121,0.0,3.0,64,0.04,,,0.06,0.0,meteohub,2013-07-06 05:22:00,
2013-07-06 01:27:00,66.4,60.3,30.06,SE,125,0.0,3.0,64,0.04,,,0.06,0.0,meteohub,2013-07-06 05:27:00,
2013-07-06 01:32:00,66.4,60.3,30.06,East,99,0.0,2.0,64,0.04,,,0.06,0.0,meteohub,2013-07-06 05:32:00,
2013-07-06 01:37:00,66.4,60.8,30.06,East,99,0.0,1.0,65,0.04,,,0.06,0.0,meteohub,2013-07-06 05:37:00,
2013-07-06 01:42:00,66.4,60.8,30.05,East,99,0.0,1.0,65,0.05,,,0.07,0.0,meteohub,2013-07-06 05:42:00,
2013-07-06 01:47:00,66.4,60.8,30.05,East,99,0.0,1.0,65,0.05,,,0.07,0.0,meteohub,2013-07-06 05:47:00,
2013-07-06 01:52:00,66.2,61.2,30.05,ENE,77,0.0,1.0,65,0.05,,,0.07,0.0,meteohub,2013-07-06 05:52:00,
2013-07-06 01:57:00,66.2,60.6,30.05,ESE,122,2.0,3.0,64,0.04,,,0.07,0.0,meteohub,2013-07-06 05:57:00,
2013-07-06 02:02:00,66.2,60.8,30.05,ESE,122,0.0,3.0,65,0.03,,,0.07,0.0,meteohub,2013-07-06 06:02:00,
2013-07-06 02:07:00,66.0,60.8,30.05,ESE,122,0.0,3.0,65,0.03,,,0.07,0.0,meteohub,2013-07-06 06:07:00,
2013-07-06 02:12:00,66.0,60.8,30.05,ESE,122,0.0,2.0,65,0.02,,,0.07,0.0,meteohub,2013-07-06 06:12:00,
2013-07-06 02:17:00,66.0,61.2,30.06,WSW,246,3.0,3.0,65,0.02,,,0.08,0.0,meteohub,2013-07-06 06:17:00,
2013-07-06 02:22:00,66.0,61.2,30.06,NNE,15,0.0,3.0,65,0.03,,,0.09,0.0,meteohub,2013-07-06 06:22:00,
2013-07-06 02:27:00,66.0,60.6,30.06,NNE,15,0.0,3.0,64,0.07,,,0.13,0.0,meteohub,2013-07-06 06:27:00,
2013-07-06 02:32:00,66.0,60.3,30.05,NNE,16,2.0,3.0,64,0.09,,,0.15,0.0,meteohub,2013-07-06 06:32:00,
2013-07-06 02:37:00,66.0,60.8,30.05,NNE,13,0.0,3.0,65,0.12,,,0.18,0.0,meteohub,2013-07-06 06:37:00,
2013-07-06 02:42:00,65.8,60.8,30.05,West,279,0.0,3.0,65,0.12,,,0.19,0.0,meteohub,2013-07-06 06:42:00,
2013-07-06 02:47:00,65.8,61.2,30.05,West,279,0.0,3.0,65,0.13,,,0.20,0.0,meteohub,2013-07-06 06:47:00,
2013-07-06 02:52:00,65.8,61.2,30.04,NE,52,1.0,2.0,65,0.13,,,0.20,0.0,meteohub,2013-07-06 06:52:00,
2013-07-06 02:57:00,65.8,60.6,30.04,SSE,163,0.0,2.0,64,0.13,,,0.20,0.0,meteohub,2013-07-06 06:57:00,
2013-07-06 03:02:00,65.7,60.3,30.04,SSE,163,0.0,2.0,64,0.13,,,0.20,0.0,meteohub,2013-07-06 07:02:00,
2013-07-06 03:07:00,65.7,60.8,30.04,SSE,163,0.0,2.0,65,0.13,,,0.20,0.0,meteohub,2013-07-06 07:07:00,
2013-07-06 03:12:00,65.7,60.8,30.04,SSE,163,0.0,2.0,65,0.13,,,0.20,0.0,meteohub,2013-07-06 07:12:00,
2013-07-06 03:17:00,65.5,61.2,30.04,SSE,163,0.0,0.0,65,0.12,,,0.20,0.0,meteohub,2013-07-06 07:17:00,
2013-07-06 03:22:00,65.5,61.2,30.04,SSE,163,0.0,0.0,65,0.10,,,0.20,0.0,meteohub,2013-07-06 07:22:00,
2013-07-06 03:27:00,65.5,60.3,30.04,SSE,163,0.0,1.0,63,0.07,,,0.20,0.0,meteohub,2013-07-06 07:27:00,
2013-07-06 03:32:00,65.5,60.3,30.04,ENE,74,0.0,2.0,64,0.04,,,0.20,0.0,meteohub,2013-07-06 07:32:00,
2013-07-06 03:37:00,65.5,60.8,30.04,ENE,74,0.0,3.0,65,0.01,,,0.20,0.0,meteohub,2013-07-06 07:37:00,
2013-07-06 03:42:00,65.3,60.8,30.04,ENE,78,0.0,3.0,65,0.00,,,0.20,0.0,meteohub,2013-07-06 07:42:00,
2013-07-06 03:47:00,65.1,60.8,30.04,ESE,109,1.0,3.0,65,0.00,,,0.20,0.0,meteohub,2013-07-06 07:47:00,
2013-07-06 03:52:00,65.1,60.6,30.04,ENE,76,0.0,3.0,64,0.00,,,0.20,0.0,meteohub,2013-07-06 07:52:00,
2013-07-06 03:57:00,64.9,60.3,30.04,ENE,76,2.0,3.0,64,0.00,,,0.20,0.0,meteohub,2013-07-06 07:57:00,
2013-07-06 04:02:00,64.9,60.8,30.04,SSE,155,2.0,3.0,65,0.00,,,0.20,0.0,meteohub,2013-07-06 08:02:00,
2013-07-06 04:07:00,64.9,60.8,30.04,ESE,123,0.0,3.0,65,0.00,,,0.20,0.0,meteohub,2013-07-06 08:07:00,
2013-07-06 04:12:00,64.8,60.8,30.04,East,81,1.0,3.0,65,0.00,,,0.20,0.0,meteohub,2013-07-06 08:12:00,
2013-07-06 04:17:00,64.8,61.2,30.04,East,81,0.0,3.0,65,0.00,,,0.20,0.0,meteohub,2013-07-06 08:17:00,
2013-07-06 04:22:00,64.8,60.6,30.04,East,81,0.0,2.0,64,0.00,,,0.20,0.0,meteohub,2013-07-06 08:22:00,
2013-07-06 04:27:00,64.6,60.3,30.04,East,82,0.0,2.0,64,0.00,,,0.20,0.0,meteohub,2013-07-06 08:27:00,
2013-07-06 04:32:00,64.4,60.8,30.04,East,82,0.0,1.0,65,0.00,,,0.20,0.0,meteohub,2013-07-06 08:32:00,
2013-07-06 04:37:00,64.2,60.8,30.04,ENE,76,1.0,1.0,65,0.00,,,0.20,0.0,meteohub,2013-07-06 08:37:00,
2013-07-06 04:42:00,64.2,60.8,30.04,East,85,0.0,2.0,65,0.00,,,0.20,0.0,meteohub,2013-07-06 08:42:00,
2013-07-06 04:47:00,64.2,61.2,30.04,East,85,0.0,2.0,65,0.00,,,0.20,0.0,meteohub,2013-07-06 08:47:00,
2013-07-06 04:52:00,64.0,60.6,30.04,East,85,0.0,2.0,64,0.00,,,0.20,0.0,meteohub,2013-07-06 08:52:00,
2013-07-06 04:57:00,64.0,59.9,30.04,East,85,0.0,0.0,63,0.00,,,0.20,0.0,meteohub,2013-07-06 08:57:00,
2013-07-06 05:02:00,64.0,60.3,30.04,East,85,0.0,1.0,64,0.00,,,0.20,0.0,meteohub,2013-07-06 09:02:00,
2013-07-06 05:07:00,64.0,60.8,30.04,SSW,202,0.0,1.0,65,0.00,,,0.20,0.0,meteohub,2013-07-06 09:07:00,
2013-07-06 05:12:00,63.9,60.8,30.04,SSW,200,0.0,3.0,65,0.00,,,0.20,0.0,meteohub,2013-07-06 09:12:00,
2013-07-06 05:17:00,63.9,60.8,30.04,SSW,200,0.0,3.0,65,0.00,,,0.20,0.0,meteohub,2013-07-06 09:17:00,
2013-07-06 05:22:00,63.7,60.8,30.04,SSW,200,0.0,2.0,65,0.00,,,0.20,0.0,meteohub,2013-07-06 09:22:00,
2013-07-06 05:27:00,63.7,60.6,30.04,SSW,200,0.0,0.0,64,0.00,,,0.20,0.0,meteohub,2013-07-06 09:27:00,
2013-07-06 05:32:00,63.5,59.9,30.04,SSW,200,0.0,0.0,63,0.00,,,0.20,0.0,meteohub,2013-07-06 09:32:00,
2013-07-06 05:37:00,63.3,60.3,30.04,SSW,200,0.0,0.0,64,0.00,,,0.20,0.0,meteohub,2013-07-06 09:37:00,
2013-07-06 05:42:00,63.3,60.8,30.04,ENE,74,1.0,0.0,65,0.00,,,0.20,0.0,meteohub,2013-07-06 09:42:00,
2013-07-06 05:47:00,63.1,60.8,30.04,SE,145,0.0,2.0,65,0.00,,,0.20,0.0,meteohub,2013-07-06 09:47:00,
2013-07-06 05:52:00,63.3,60.8,30.04,ENE,62,1.0,4.0,65,0.00,,,0.20,0.0,meteohub,2013-07-06 09:52:00,
2013-07-06 05:57:00,63.5,60.8,30.04,South,170,0.0,4.0,65,0.00,,,0.20,0.0,meteohub,2013-07-06 09:57:00,
2013-07-06 06:02:00,63.3,60.6,30.04,SE,135,0.0,4.0,64,0.00,,,0.20,0.0,meteohub,2013-07-06 10:02:00,
2013-07-06 06:07:00,63.7,59.9,30.04,East,90,0.0,4.0,63,0.00,,,0.20,0.0,meteohub,2013-07-06 10:07:00,
2013-07-06 06:12:00,63.9,60.3,30.04,East,90,0.0,2.0,64,0.00,,,0.20,0.0,meteohub,2013-07-06 10:12:00,
2013-07-06 06:17:00,63.9,60.8,30.04,ESE,113,0.0,2.0,65,0.00,,,0.20,0.0,meteohub,2013-07-06 10:17:00,
2013-07-06 06:27:00,63.7,60.8,30.04,ESE,113,0.0,1.0,65,0.00,,,0.20,7.0,meteohub,2013-07-06 10:27:00,
2013-07-06 06:32:00,63.9,59.9,30.05,ESE,113,0.0,1.0,63,0.00,,,0.20,14.0,meteohub,2013-07-06 10:32:00,
2013-07-06 06:37:00,63.9,60.3,30.05,SE,132,0.0,1.0,64,0.00,,,0.20,18.0,meteohub,2013-07-06 10:37:00,
2013-07-06 06:42:00,63.9,60.8,30.05,SE,124,1.0,2.0,65,0.00,,,0.20,35.0,meteohub,2013-07-06 10:42:00,
2013-07-06 06:47:00,64.0,60.8,30.04,SE,124,0.0,2.0,65,0.00,,,0.20,49.0,meteohub,2013-07-06 10:47:00,
2013-07-06 06:52:00,64.2,60.8,30.05,SE,143,0.0,3.0,65,0.00,,,0.20,44.0,meteohub,2013-07-06 10:52:00,
2013-07-06 06:57:00,64.2,60.3,30.05,SE,135,2.0,3.0,64,0.00,,,0.20,67.0,meteohub,2013-07-06 10:57:00,
2013-07-06 07:02:00,64.6,60.3,30.05,ESE,109,1.0,4.0,64,0.00,,,0.20,67.0,meteohub,2013-07-06 11:02:00,
2013-07-06 07:07:00,64.8,60.8,30.05,ESE,123,3.0,4.0,65,0.00,,,0.20,74.0,meteohub,2013-07-06 11:07:00,
2013-07-06 07:12:00,64.9,60.8,30.05,SE,127,3.0,4.0,65,0.00,,,0.20,72.0,meteohub,2013-07-06 11:12:00,
2013-07-06 07:17:00,64.9,60.8,30.05,ESE,123,0.0,4.0,65,0.00,,,0.20,98.0,meteohub,2013-07-06 11:17:00,
2013-07-06 07:22:00,65.7,60.8,30.05,ESE,105,2.0,4.0,65,0.00,,,0.20,178.0,meteohub,2013-07-06 11:22:00,
2013-07-06 07:27:00,66.7,59.9,30.05,ESE,106,0.0,5.0,63,0.00,,,0.20,193.0,meteohub,2013-07-06 11:27:00,
2013-07-06 07:32:00,67.6,60.3,30.05,SE,134,2.0,5.0,64,0.00,,,0.20,204.0,meteohub,2013-07-06 11:32:00,
2013-07-06 07:37:00,68.2,60.3,30.05,SE,128,1.0,6.0,64,0.00,,,0.20,172.0,meteohub,2013-07-06 11:37:00,
2013-07-06 07:42:00,68.0,60.8,30.05,ESE,111,0.0,6.0,65,0.00,,,0.20,63.0,meteohub,2013-07-06 11:42:00,
2013-07-06 07:47:00,67.6,60.8,30.06,ESE,111,0.0,6.0,65,0.00,,,0.20,62.0,meteohub,2013-07-06 11:47:00,
2013-07-06 07:52:00,67.5,60.8,30.06,ESE,111,0.0,5.0,65,0.00,,,0.20,65.0,meteohub,2013-07-06 11:52:00,
2013-07-06 07:57:00,67.5,61.2,30.06,SE,128,0.0,2.0,65,0.00,,,0.20,62.0,meteohub,2013-07-06 11:57:00,
2013-07-06 08:02:00,67.1,59.9,30.06,SE,128,0.0,2.0,63,0.00,,,0.20,74.0,meteohub,2013-07-06 12:02:00,
2013-07-06 08:07:00,67.3,60.3,30.06,SE,128,0.0,1.0,64,0.00,,,0.20,69.0,meteohub,2013-07-06 12:07:00,
2013-07-06 08:12:00,67.1,60.8,30.06,East,97,0.0,2.0,65,0.00,,,0.20,104.0,meteohub,2013-07-06 12:12:00,
2013-07-06 08:17:00,66.9,60.8,30.06,ESE,110,0.0,3.0,65,0.00,,,0.20,128.0,meteohub,2013-07-06 12:17:00,
2013-07-06 08:22:00,67.3,60.8,30.06,ESE,113,0.0,3.0,65,0.00,,,0.20,206.0,meteohub,2013-07-06 12:22:00,
2013-07-06 08:27:00,67.6,61.2,30.06,SE,141,1.0,3.0,65,0.00,,,0.20,190.0,meteohub,2013-07-06 12:27:00,
2013-07-06 08:32:00,68.2,60.3,30.06,SE,139,3.0,4.0,63,0.00,,,0.20,142.0,meteohub,2013-07-06 12:32:00,
2013-07-06 08:37:00,68.2,60.3,30.07,South,179,0.0,4.0,64,0.00,,,0.20,146.0,meteohub,2013-07-06 12:37:00,
2013-07-06 08:42:00,68.4,60.3,30.07,SE,132,2.0,4.0,64,0.00,,,0.20,188.0,meteohub,2013-07-06 12:42:00,
2013-07-06 08:47:00,68.5,60.8,30.07,SE,143,2.0,6.0,65,0.00,,,0.20,214.0,meteohub,2013-07-06 12:47:00,
2013-07-06 08:52:00,68.7,60.8,30.07,ENE,69,1.0,6.0,65,0.00,,,0.20,216.0,meteohub,2013-07-06 12:52:00,
2013-07-06 08:57:00,69.3,60.3,30.07,ENE,69,0.0,5.0,64,0.00,,,0.20,139.0,meteohub,2013-07-06 12:57:00,
2013-07-06 09:02:00,69.4,60.3,30.07,SE,137,2.0,5.0,64,0.00,,,0.20,171.0,meteohub,2013-07-06 13:02:00,
2013-07-06 09:07:00,69.4,60.8,30.07,ESE,119,3.0,4.0,65,0.00,,,0.20,195.0,meteohub,2013-07-06 13:07:00,
2013-07-06 09:12:00,69.8,60.8,30.07,ESE,112,1.0,6.0,65,0.00,,,0.20,209.0,meteohub,2013-07-06 13:12:00,
2013-07-06 09:17:00,70.2,60.8,30.06,SE,136,1.0,6.0,65,0.00,,,0.20,589.0,meteohub,2013-07-06 13:17:00,
2013-07-06 09:22:00,71.2,60.3,30.06,SE,133,6.0,6.0,64,0.00,,,0.20,573.0,meteohub,2013-07-06 13:22:00,
2013-07-06 09:27:00,71.1,60.3,30.06,ESE,117,2.0,8.0,64,0.00,,,0.20,341.0,meteohub,2013-07-06 13:27:00,
2013-07-06 09:32:00,70.5,60.8,30.06,SSE,157,4.0,8.0,65,0.00,,,0.20,213.0,meteohub,2013-07-06 13:32:00,
2013-07-06 09:37:00,70.3,60.8,30.06,ENE,67,3.0,8.0,65,0.00,,,0.20,643.0,meteohub,2013-07-06 13:37:00,
2013-07-06 09:42:00,70.9,61.2,30.06,SSE,165,3.0,8.0,65,0.00,,,0.20,220.0,meteohub,2013-07-06 13:42:00,
2013-07-06 09:47:00,70.7,59.9,30.06,ESE,106,5.0,8.0,63,0.00,,,0.20,199.0,meteohub,2013-07-06 13:47:00,
2013-07-06 09:52:00,70.5,60.3,30.06,ESE,107,2.0,10.0,64,0.00,,,0.20,163.0,meteohub,2013-07-06 13:52:00,
2013-07-06 09:57:00,70.2,60.8,30.06,SSW,192,1.0,10.0,65,0.00,,,0.20,193.0,meteohub,2013-07-06 13:57:00,
2013-07-06 10:02:00,70.0,60.8,30.06,ESE,117,3.0,10.0,65,0.00,,,0.20,246.0,meteohub,2013-07-06 14:02:00,
2013-07-06 10:07:00,69.6,60.3,30.06,South,169,1.0,13.0,64,0.00,,,0.20,243.0,meteohub,2013-07-06 14:07:00,
2013-07-06 10:12:00,69.6,60.3,30.06,SE,125,7.0,13.0,64,0.00,,,0.20,313.0,meteohub,2013-07-06 14:12:00,
2013-07-06 10:17:00,70.2,60.8,30.06,SE,137,6.0,13.0,65,0.00,,,0.20,359.0,meteohub,2013-07-06 14:17:00,
2013-07-06 10:22:00,70.7,60.8,30.06,SE,127,5.0,10.0,65,0.00,,,0.20,378.0,meteohub,2013-07-06 14:22:00,
2013-07-06 10:27:00,71.1,60.8,30.06,East,80,5.0,10.0,65,0.00,,,0.20,341.0,meteohub,2013-07-06 14:27:00,
2013-07-06 10:32:00,71.1,60.3,30.06,ESE,112,1.0,9.0,64,0.00,,,0.20,278.0,meteohub,2013-07-06 14:32:00,
2013-07-06 10:37:00,71.1,60.3,30.06,ESE,105,2.0,9.0,64,0.00,,,0.20,227.0,meteohub,2013-07-06 14:37:00,
2013-07-06 10:42:00,71.2,60.8,30.06,SE,124,1.0,9.0,65,0.00,,,0.20,156.0,meteohub,2013-07-06 14:42:00,
2013-07-06 10:47:00,71.1,60.8,30.06,ESE,109,0.0,7.0,65,0.00,,,0.20,142.0,meteohub,2013-07-06 14:47:00,
2013-07-06 10:52:00,70.7,60.8,30.06,SSE,156,2.0,5.0,65,0.00,,,0.20,155.0,meteohub,2013-07-06 14:52:00,
2013-07-06 10:57:00,70.3,60.3,30.07,ESE,108,2.0,5.0,64,0.00,,,0.20,237.0,meteohub,2013-07-06 14:57:00,
2013-07-06 11:02:00,70.7,60.3,30.07,SE,134,0.0,4.0,64,0.00,,,0.20,241.0,meteohub,2013-07-06 15:02:00,
2013-07-06 11:07:00,70.9,60.8,30.07,ESE,106,1.0,9.0,65,0.00,,,0.20,176.0,meteohub,2013-07-06 15:07:00,
2013-07-06 11:12:00,70.5,60.8,30.07,South,171,0.0,9.0,65,0.00,,,0.20,260.0,meteohub,2013-07-06 15:12:00,
2013-07-06 11:17:00,71.1,60.8,30.07,ESE,118,2.0,7.0,65,0.00,,,0.20,283.0,meteohub,2013-07-06 15:17:00,
2013-07-06 11:22:00,71.4,60.8,30.06,SSE,168,3.0,8.0,65,0.00,,,0.20,239.0,meteohub,2013-07-06 15:22:00,
2013-07-06 11:27:00,71.2,60.3,30.06,SE,124,3.0,8.0,64,0.00,,,0.20,200.0,meteohub,2013-07-06 15:27:00,
2013-07-06 11:32:00,71.1,60.3,30.07,SE,140,2.0,8.0,64,0.00,,,0.20,160.0,meteohub,2013-07-06 15:32:00,
2013-07-06 11:37:00,70.9,60.8,30.07,SSW,197,4.0,8.0,65,0.00,,,0.20,148.0,meteohub,2013-07-06 15:37:00,
2013-07-06 11:42:00,70.3,60.8,30.07,SW,218,1.0,9.0,65,0.00,,,0.20,135.0,meteohub,2013-07-06 15:42:00,
2013-07-06 11:47:00,70.0,60.8,30.07,SW,219,3.0,9.0,65,0.00,,,0.20,162.0,meteohub,2013-07-06 15:47:00,
2013-07-06 11:52:00,70.0,60.3,30.07,SE,146,3.0,9.0,64,0.00,,,0.20,220.0,meteohub,2013-07-06 15:52:00,
2013-07-06 11:57:00,70.3,60.3,30.07,SE,145,6.0,7.0,64,0.00,,,0.20,232.0,meteohub,2013-07-06 15:57:00,
2013-07-06 12:02:00,70.9,60.3,30.07,SE,138,5.0,8.0,64,0.00,,,0.20,288.0,meteohub,2013-07-06 16:02:00,
2013-07-06 12:07:00,71.2,60.8,30.07,SE,133,5.0,8.0,65,0.00,,,0.20,339.0,meteohub,2013-07-06 16:07:00,
2013-07-06 12:12:00,73.0,60.8,30.06,ESE,120,2.0,11.0,65,0.00,,,0.20,1063.0,meteohub,2013-07-06 16:12:00,
2013-07-06 12:17:00,74.5,60.3,30.06,ESE,117,2.0,12.0,64,0.00,,,0.20,1097.0,meteohub,2013-07-06 16:17:00,
2013-07-06 12:22:00,74.3,60.3,30.06,SSE,155,4.0,12.0,64,0.00,,,0.20,388.0,meteohub,2013-07-06 16:22:00,
2013-07-06 12:27:00,73.8,60.8,30.06,SSE,161,5.0,12.0,65,0.00,,,0.20,411.0,meteohub,2013-07-06 16:27:00,
2013-07-06 12:32:00,73.6,60.8,30.06,SE,131,8.0,12.0,65,0.00,,,0.20,480.0,meteohub,2013-07-06 16:32:00,
2013-07-06 12:37:00,73.2,61.2,30.06,SSE,161,3.0,12.0,65,0.00,,,0.20,359.0,meteohub,2013-07-06 16:37:00,
2013-07-06 12:42:00,73.8,60.3,30.06,SSE,160,5.0,12.0,64,0.00,,,0.20,492.0,meteohub,2013-07-06 16:42:00,
2013-07-06 12:50:00,73.8,60.3,30.06,SE,146,4.0,10.0,64,0.00,,,0.20,329.0,meteohub,2013-07-06 16:50:00,
2013-07-06 13:00:00,73.2,60.8,30.06,SSE,147,5.0,10.0,65,0.00,,,0.20,258.0,meteohub,2013-07-06 17:00:00,
2013-07-06 13:07:00,72.5,60.3,30.06,South,171,4.0,13.0,64,0.00,,,0.20,197.0,meteohub,2013-07-06 17:07:00,
2013-07-06 13:12:00,72.3,60.8,30.06,SSE,154,2.0,10.0,65,0.00,,,0.20,225.0,meteohub,2013-07-06 17:12:00,
2013-07-06 13:20:00,72.3,60.8,30.06,SSW,204,4.0,11.0,65,0.00,,,0.20,299.0,meteohub,2013-07-06 17:20:00,
2013-07-06 13:27:00,73.6,61.2,30.06,SSE,155,5.0,6.0,65,0.00,,,0.20,336.0,meteohub,2013-07-06 17:27:00,
2013-07-06 13:35:00,73.6,59.9,30.06,South,185,2.0,10.0,63,0.00,,,0.20,306.0,meteohub,2013-07-06 17:35:00,
2013-07-06 13:42:00,73.6,60.8,30.06,SSE,161,6.0,15.0,65,0.00,,,0.20,417.0,meteohub,2013-07-06 17:42:00,
2013-07-06 13:52:00,73.8,60.8,30.05,SSW,201,1.0,12.0,65,0.00,,,0.20,265.0,meteohub,2013-07-06 17:52:00,
2013-07-06 13:57:00,73.9,60.3,30.04,SSE,165,9.0,12.0,64,0.00,,,0.20,357.0,meteohub,2013-07-06 17:57:00,
2013-07-06 14:02:00,74.1,60.3,30.04,SSW,202,6.0,9.0,64,0.00,,,0.20,267.0,meteohub,2013-07-06 18:02:00,
2013-07-06 14:07:00,73.9,60.8,30.04,SE,129,3.0,9.0,65,0.00,,,0.20,281.0,meteohub,2013-07-06 18:07:00,
2013-07-06 14:12:00,73.9,60.8,30.04,SE,144,5.0,9.0,65,0.00,,,0.20,352.0,meteohub,2013-07-06 18:12:00,
2013-07-06 14:23:00,74.1,60.3,30.04,South,178,1.0,16.0,64,0.00,,,0.20,390.0,meteohub,2013-07-06 18:23:00,
2013-07-06 14:33:00,75.0,60.8,30.03,South,186,3.0,8.0,65,0.00,,,0.20,285.0,meteohub,2013-07-06 18:33:00,
2013-07-06 14:42:00,75.6,60.8,30.03,SSW,198,0.0,6.0,65,0.00,,,0.20,489.0,meteohub,2013-07-06 18:42:00,
2013-07-06 14:47:00,75.6,61.2,30.03,South,190,6.0,7.0,65,0.00,,,0.20,316.0,meteohub,2013-07-06 18:47:00,
2013-07-06 14:52:00,75.4,60.3,30.03,East,92,3.0,7.0,63,0.00,,,0.20,260.0,meteohub,2013-07-06 18:52:00,
2013-07-06 14:57:00,74.8,60.3,30.03,SSE,165,3.0,13.0,64,0.00,,,0.20,250.0,meteohub,2013-07-06 18:57:00,
2013-07-06 15:02:00,74.3,60.8,30.03,SE,127,9.0,13.0,65,0.00,,,0.20,232.0,meteohub,2013-07-06 19:02:00,
2013-07-06 15:07:00,74.1,60.8,30.03,ESE,123,4.0,13.0,65,0.00,,,0.20,237.0,meteohub,2013-07-06 19:07:00,
2013-07-06 15:12:00,73.8,60.8,30.03,South,190,4.0,11.0,65,0.00,,,0.20,221.0,meteohub,2013-07-06 19:12:00,
2013-07-06 15:17:00,73.6,60.3,30.03,SW,225,4.0,11.0,64,0.00,,,0.20,204.0,meteohub,2013-07-06 19:17:00,
2013-07-06 15:22:00,73.4,60.3,30.02,SSW,201,4.0,13.0,64,0.00,,,0.20,315.0,meteohub,2013-07-06 19:22:00,
2013-07-06 15:27:00,73.9,60.8,30.02,SSW,192,3.0,13.0,65,0.00,,,0.20,494.0,meteohub,2013-07-06 19:27:00,
2013-07-06 15:35:00,75.4,60.8,30.02,SSE,147,8.0,13.0,65,0.00,,,0.20,912.0,meteohub,2013-07-06 19:35:00,
2013-07-06 15:42:00,76.1,59.9,30.02,South,178,3.0,15.0,63,0.00,,,0.20,487.0,meteohub,2013-07-06 19:42:00,
2013-07-06 15:47:00,76.3,60.3,30.01,South,189,0.0,15.0,64,0.00,,,0.20,487.0,meteohub,2013-07-06 19:47:00,
2013-07-06 15:52:00,76.6,60.8,30.01,SSW,209,6.0,15.0,65,0.00,,,0.20,949.0,meteohub,2013-07-06 19:52:00,
2013-07-06 15:57:00,77.9,60.8,30.01,SSE,161,6.0,15.0,65,0.00,,,0.20,276.0,meteohub,2013-07-06 19:57:00,
2013-07-06 16:02:00,76.8,60.8,30.01,SSW,207,2.0,13.0,65,0.00,,,0.20,257.0,meteohub,2013-07-06 20:02:00,
2013-07-06 16:07:00,76.6,61.2,30.00,SSW,200,1.0,13.0,65,0.00,,,0.20,582.0,meteohub,2013-07-06 20:07:00,
2013-07-06 16:12:00,77.0,60.3,30.00,South,171,5.0,12.0,64,0.00,,,0.20,236.0,meteohub,2013-07-06 20:12:00,
2013-07-06 16:17:00,76.6,60.3,30.00,South,179,3.0,12.0,64,0.00,,,0.20,185.0,meteohub,2013-07-06 20:17:00,
2013-07-06 16:22:00,76.5,60.8,29.99,SE,136,1.0,12.0,65,0.00,,,0.20,169.0,meteohub,2013-07-06 20:22:00,
2013-07-06 16:27:00,76.5,60.8,29.99,SSE,150,4.0,11.0,65,0.00,,,0.20,227.0,meteohub,2013-07-06 20:27:00,
2013-07-06 16:32:00,76.5,61.2,29.99,SSE,157,0.0,11.0,65,0.00,,,0.20,244.0,meteohub,2013-07-06 20:32:00,
2013-07-06 16:37:00,77.7,60.6,29.99,South,188,0.0,8.0,64,0.00,,,0.20,294.0,meteohub,2013-07-06 20:37:00,
2013-07-06 16:47:00,78.4,60.8,29.99,SW,223,2.0,9.0,65,0.00,,,0.20,940.0,meteohub,2013-07-06 20:47:00,
2013-07-06 16:52:00,79.0,60.8,29.99,WSW,240,2.0,9.0,65,0.00,,,0.20,420.0,meteohub,2013-07-06 20:52:00,
2013-07-06 16:57:00,78.3,61.2,29.99,South,190,3.0,9.0,65,0.00,,,0.20,125.0,meteohub,2013-07-06 20:57:00,
2013-07-06 17:08:00,76.5,60.3,30.01,South,178,9.0,9.0,64,0.00,,,0.20,72.0,meteohub,2013-07-06 21:08:00,
2013-07-06 17:21:00,71.8,60.8,30.01,South,175,0.0,14.0,65,0.03,,,0.23,264.0,meteohub,2013-07-06 21:21:00,
2013-07-06 17:22:00,72.3,61.2,30.01,SE,138,1.0,14.0,65,0.03,,,0.23,257.0,meteohub,2013-07-06 21:22:00,
2013-07-06 17:28:00,72.7,60.6,30.00,SE,136,0.0,8.0,64,0.03,,,0.23,125.0,meteohub,2013-07-06 21:28:00,
2013-07-06 17:40:00,73.0,60.8,30.00,NW,320,1.0,4.0,65,0.03,,,0.23,279.0,meteohub,2013-07-06 21:40:00,
2013-07-06 17:45:00,73.6,60.8,29.99,NW,317,0.0,4.0,65,0.03,,,0.23,348.0,meteohub,2013-07-06 21:45:00,
2013-07-06 17:52:00,73.8,60.3,30.00,SW,235,0.0,6.0,64,0.03,,,0.23,295.0,meteohub,2013-07-06 21:52:00,
2013-07-06 17:57:00,73.6,60.8,29.99,SSW,199,0.0,6.0,65,0.03,,,0.23,290.0,meteohub,2013-07-06 21:57:00,
2013-07-06 18:02:00,73.9,60.8,29.99,SE,138,3.0,6.0,65,0.03,,,0.23,302.0,meteohub,2013-07-06 22:02:00,
2013-07-06 18:07:00,74.3,61.2,30.00,SE,143,5.0,5.0,66,0.03,,,0.23,287.0,meteohub,2013-07-06 22:07:00,
2013-07-06 18:12:00,74.7,61.2,29.99,SSE,163,0.0,5.0,65,0.01,,,0.23,306.0,meteohub,2013-07-06 22:12:00,
2013-07-06 18:17:00,74.7,60.3,30.00,SSW,194,8.0,8.0,63,0.00,,,0.23,169.0,meteohub,2013-07-06 22:17:00,
2013-07-06 18:23:00,74.1,60.3,30.00,SSE,167,0.0,8.0,64,0.00,,,0.23,98.0,meteohub,2013-07-06 22:23:00,
2013-07-06 18:30:00,73.9,60.8,29.99,SSE,162,3.0,8.0,65,0.00,,,0.23,58.0,meteohub,2013-07-06 22:30:00,
2013-07-06 18:37:00,73.4,61.2,30.00,SSE,167,0.0,7.0,66,0.00,,,0.23,40.0,meteohub,2013-07-06 22:37:00,
2013-07-06 18:42:00,72.9,60.6,30.00,South,191,2.0,7.0,64,0.00,,,0.23,35.0,meteohub,2013-07-06 22:42:00,
2013-07-06 18:47:00,72.3,60.3,30.00,South,181,4.0,6.0,64,0.00,,,0.23,30.0,meteohub,2013-07-06 22:47:00,
2013-07-06 18:55:00,71.8,60.8,30.00,SE,134,1.0,6.0,65,0.01,,,0.24,28.0,meteohub,2013-07-06 22:55:00,
2013-07-06 19:02:00,70.0,60.8,30.00,ENE,63,1.0,7.0,65,0.03,,,0.26,60.0,meteohub,2013-07-06 23:02:00,
2013-07-06 19:07:00,69.3,60.3,30.01,ENE,63,2.0,7.0,64,0.03,,,0.26,70.0,meteohub,2013-07-06 23:07:00,
2013-07-06 19:12:00,69.1,60.8,30.01,East,94,0.0,4.0,65,0.03,,,0.26,53.0,meteohub,2013-07-06 23:12:00,
2013-07-06 19:18:00,69.1,61.2,30.02,East,94,0.0,4.0,66,0.03,,,0.26,79.0,meteohub,2013-07-06 23:18:00,
2013-07-06 19:27:00,69.1,61.2,30.02,East,91,1.0,2.0,66,0.03,,,0.26,69.0,meteohub,2013-07-06 23:27:00,
2013-07-06 19:35:00,69.3,60.3,30.02,SE,144,1.0,2.0,64,0.03,,,0.26,65.0,meteohub,2013-07-06 23:35:00,
2013-07-06 19:42:00,70.0,60.8,30.02,SE,144,0.0,5.0,65,0.03,,,0.26,51.0,meteohub,2013-07-06 23:42:00,
2013-07-06 19:47:00,70.0,61.2,30.02,SE,139,0.0,5.0,66,0.02,,,0.26,62.0,meteohub,2013-07-06 23:47:00,
2013-07-06 19:52:00,69.8,61.2,30.02,SE,136,1.0,5.0,66,0.02,,,0.26,47.0,meteohub,2013-07-06 23:52:00,
2013-07-06 19:57:00,69.4,60.8,30.01,ENE,65,2.0,3.0,65,0.00,,,0.26,40.0,meteohub,2013-07-06 23:57:00,
2013-07-06 20:02:00,69.3,60.3,30.02,ENE,65,0.0,3.0,64,0.00,,,0.26,35.0,meteohub,2013-07-07 00:02:00,
2013-07-06 20:07:00,68.7,60.8,30.02,East,81,0.0,3.0,65,0.00,,,0.26,26.0,meteohub,2013-07-07 00:07:00,
2013-07-06 20:12:00,68.7,60.8,30.02,ESE,103,0.0,3.0,65,0.00,,,0.26,18.0,meteohub,2013-07-07 00:12:00,
2013-07-06 20:17:00,68.7,61.2,30.02,ENE,65,2.0,2.0,66,0.00,,,0.26,18.0,meteohub,2013-07-07 00:17:00,
2013-07-06 20:22:00,68.7,61.2,30.02,ENE,65,1.0,3.0,66,0.00,,,0.26,14.0,meteohub,2013-07-07 00:22:00,
2013-07-06 20:27:00,68.7,61.2,30.02,ENE,59,3.0,3.0,66,0.00,,,0.26,9.0,meteohub,2013-07-07 00:27:00,
2013-07-06 20:37:00,68.5,60.6,30.02,ENE,63,0.0,4.0,64,0.00,,,0.26,5.0,meteohub,2013-07-07 00:37:00,
2013-07-06 20:42:00,68.4,60.3,30.02,ENE,68,1.0,4.0,64,0.00,,,0.26,0.0,meteohub,2013-07-07 00:42:00,
2013-07-06 20:55:00,68.4,61.2,30.01,ESE,113,0.0,3.0,66,0.00,,,0.26,0.0,meteohub,2013-07-07 00:55:00,
2013-07-06 21:02:00,68.4,60.8,30.01,ESE,113,1.0,2.0,65,0.00,,,0.26,0.0,meteohub,2013-07-07 01:02:00,
2013-07-06 21:07:00,68.4,60.3,30.01,ESE,113,0.0,2.0,64,0.00,,,0.26,0.0,meteohub,2013-07-07 01:07:00,
2013-07-06 21:12:00,68.2,60.8,30.02,ESE,113,0.0,2.0,65,0.00,,,0.26,0.0,meteohub,2013-07-07 01:12:00,
2013-07-06 21:17:00,68.0,61.2,30.02,ESE,113,0.0,1.0,66,0.00,,,0.26,0.0,meteohub,2013-07-07 01:17:00,
2013-07-06 21:27:00,67.8,61.2,30.02,NE,34,0.0,5.0,66,0.00,,,0.26,0.0,meteohub,2013-07-07 01:27:00,
2013-07-06 21:32:00,67.8,61.5,30.02,ENE,63,3.0,5.0,66,0.00,,,0.26,0.0,meteohub,2013-07-07 01:32:00,
2013-07-06 21:37:00,67.8,61.2,30.03,NE,34,0.0,5.0,65,0.00,,,0.26,0.0,meteohub,2013-07-07 01:37:00,
2013-07-06 21:47:00,67.6,60.8,30.04,ENE,57,0.0,4.0,65,0.00,,,0.26,0.0,meteohub,2013-07-07 01:47:00,
2013-07-06 21:52:00,67.6,60.8,30.04,ENE,57,0.0,2.0,65,0.00,,,0.26,0.0,meteohub,2013-07-07 01:52:00,
2013-07-06 22:00:00,67.6,61.2,30.04,West,277,1.0,2.0,66,0.00,,,0.26,0.0,meteohub,2013-07-07 02:00:00,
2013-07-06 22:07:00,67.5,61.5,30.05,NNW,333,0.0,3.0,66,0.00,,,0.26,0.0,meteohub,2013-07-07 02:07:00,
2013-07-06 22:12:00,67.3,61.2,30.05,NNW,333,1.0,3.0,65,0.00,,,0.26,0.0,meteohub,2013-07-07 02:12:00,
2013-07-06 22:20:00,67.3,60.6,30.04,NNW,333,1.0,3.0,64,0.00,,,0.26,0.0,meteohub,2013-07-07 02:20:00,
2013-07-06 22:25:00,67.3,60.8,30.04,NNW,333,1.0,3.0,65,0.00,,,0.26,0.0,meteohub,2013-07-07 02:25:00,
2013-07-06 22:35:00,67.3,61.2,30.04,NNW,333,0.0,2.0,66,0.00,,,0.26,0.0,meteohub,2013-07-07 02:35:00,
2013-07-06 22:42:00,67.1,60.8,30.05,NNW,333,0.0,1.0,65,0.00,,,0.26,0.0,meteohub,2013-07-07 02:42:00,
2013-07-06 22:52:00,67.1,61.2,30.05,NNW,333,0.0,0.0,66,0.02,,,0.28,0.0,meteohub,2013-07-07 02:52:00,
2013-07-06 22:57:00,66.9,61.2,30.04,NNW,333,0.0,0.0,66,0.02,,,0.28,0.0,meteohub,2013-07-07 02:57:00,
2013-07-06 23:02:00,66.9,61.2,30.04,NNW,333,0.0,1.0,66,0.02,,,0.28,0.0,meteohub,2013-07-07 03:02:00,
2013-07-06 23:12:00,66.7,61.2,30.04,NNW,333,0.0,0.0,65,0.02,,,0.28,0.0,meteohub,2013-07-07 03:12:00,
2013-07-06 23:17:00,66.7,60.8,30.05,NNW,333,0.0,1.0,65,0.02,,,0.28,0.0,meteohub,2013-07-07 03:17:00,
2013-07-06 23:22:00,66.7,61.2,30.05,NNW,333,0.0,1.0,66,0.02,,,0.28,0.0,meteohub,2013-07-07 03:22:00,
2013-07-06 23:27:00,66.7,61.2,30.05,NNW,333,0.0,1.0,66,0.02,,,0.28,0.0,meteohub,2013-07-07 03:27:00,
2013-07-06 23:32:00,66.7,61.5,30.05,NNW,333,0.0,1.0,66,0.02,,,0.28,0.0,meteohub,2013-07-07 03:32:00,
2013-07-06 23:37:00,66.6,60.3,30.05,NNW,333,0.0,1.0,63,0.02,,,0.28,0.0,meteohub,2013-07-07 03:37:00,
2013-07-06 23:42:00,66.6,60.3,30.05,NNW,333,0.0,1.0,64,0.02,,,0.28,0.0,meteohub,2013-07-07 03:42:00,
2013-07-06 23:47:00,66.6,60.8,30.05,NE,56,0.0,1.0,65,0.01,,,0.28,0.0,meteohub,2013-07-07 03:47:00,
2013-07-06 23:52:00,66.4,60.8,30.04,ENE,78,0.0,1.0,65,0.00,,,0.28,0.0,meteohub,2013-07-07 03:52:00,